RH
17 13 12 12 10 10 9 11 10 14 24 23 25 25 28 37 40 42 41 42 44 52 68 68 64 75 79 88 82 61 62 62 74 57 63 65 65 57 54 36 37 40 43 42
16 16 17 18 14 12 11 11 17 22 25 22 25 32 32 34 40 41 42 45 50 64 72 85 86 86 87 84 83 84 73 82 70 67 64 61 63 50 35 40 41 45 46 48
12 20 20 16 16 16 18 16 22 16 25 23 24 30 34 41 44 49 47 48 55 62 72 83 89 91 91 90 90 84 77 67 65 54 46 41 41 44 53 57 56 53 48 50
20 21 19 18 19 22 19 21 21 25 22 20 24 22 35 40 45 46 52 54 60 68 74 79 84 89 87 89 85 72 64 55 41 43 48 48 55 55 53 56 62 65 64 51
25 21 20 19 23 24 25 24 23 22 21 23 24 22 34 39 45 47 51 56 62 67 67 68 68 69 65 57 56 50 41 42 43 46 48 52 55 60 62 64 62 63 60 62
22 23 20 22 25 23 26 25 25 24 24 29 21 24 21 37 34 42 47 51 55 56 53 49 51 50 50 58 41 43 44 47 48 49 52 53 47 45 43 38 35 30 27 26
22 23 21 22 26 26 25 24 28 28 32 32 32 29 18 22 29 36 43 44 50 49 42 42 45 45 53 60 51 52 52 52 54 57 48 39 37 34 30 24 28 24 28 30
21 30 22 23 22 22 25 23 25 33 38 22 33 26 18 24 27 34 39 40 44 44 45 46 45 49 57 61 59 54 57 58 52 44 40 37 29 26 31 28 24 40 41 46
23 26 23 25 23 22 27 28 27 39 46 40 23 24 24 27 28 33 34 37 40 42 47 48 54 57 62 62 62 62 55 46 43 42 49 29 27 29 28 35 39 40 45 53
26 30 25 25 24 26 24 24 32 34 45 39 24 30 23 33 31 31 32 37 37 40 46 54 59 62 62 67 63 53 47 44 60 59 33 30 33 36 33 28 22 24 32 52
22 26 31 28 26 24 28 26 28 28 38 29 24 14 26 27 29 32 34 36 37 42 49 58 62 66 66 64 52 49 46 53 48 36 30 33 35 35 33 41 32 25 22 65
28 30 40 28 27 27 24 23 20 24 29 42 49 20 26 32 32 29 32 36 39 46 51 58 63 70 70 56 49 43 46 44 38 33 32 34 34 36 43 55 56 52 59 67
31 34 40 34 30 27 27 26 23 31 40 38 58 17 26 32 35 34 33 34 44 50 56 59 63 65 58 49 41 45 47 42 34 31 34 34 37 43 61 62 64 64 72 83
31 35 33 36 25 26 33 30 25 21 33 25 30 14 18 23 28 31 37 37 46 54 56 56 56 53 48 42 47 48 43 32 31 32 34 42 40 51 64 67 68 71 78 85
35 38 35 34 35 31 26 26 28 25 24 29 16 19 14 17 20 25 37 44 47 53 55 54 50 47 43 42 48 47 37 31 32 32 39 48 46 55 69 71 67 68 82 88
42 47 46 48 41 36 34 25 26 26 24 27 20 23 16 22 30 34 42 47 48 50 52 53 51 46 43 41 47 42 32 31 32 34 39 46 48 54 69 66 68 73 77 81
49 59 46 40 47 44 60 37 25 24 24 27 27 21 25 30 34 34 40 46 47 48 51 52 52 48 41 40 38 37 34 31 32 34 38 36 39 55 62 64 66 67 72 79
60 50 55 59 58 79 20 28 27 24 22 21 23 25 26 27 36 42 41 44 48 48 50 52 53 50 43 38 40 38 34 31 31 36 38 39 55 58 57 60 66 70 73 74
42 49 70 85 42 29 14 23 28 32 19 22 22 22 30 47 49 41 45 46 47 51 52 55 55 51 45 38 39 36 29 29 31 39 45 43 47 53 53 55 66 72 73 70
46 51 46 64 86 85 26 27 42 35 29 28 34 34 43 48 54 21 36 32 43 55 57 58 55 48 40 38 41 41 29 32 42 39 37 47 51 53 55 60 70 76 77 77
75 80 81 63 82 41 26 33 41 37 30 34 41 39 46 45 33 43 32 46 50 57 61 60 56 40 38 57 51 25 30 42 33 23 33 51 53 56 61 70 76 78 77 79
56 68 86 71 91 76 30 42 48 34 43 42 43 42 48 45 52 55 49 47 53 61 59 56 43 40 64 45 28 41 42 34 21 27 30 56 56 50 70 79 78 83 83 80
53 48 48 44 38 34 36 36 39 46 45 43 47 42 50 50 50 57 57 53 56 52 44 41 43 50 33 42 42 32 32 21 23 25 35 46 64 71 84 86 87 84 83 82
49 48 53 52 32 33 35 37 39 41 45 44 44 47 53 56 55 61 62 54 50 44 43 44 44 56 67 70 50 22 22 23 28 32 37 64 65 41 86 89 87 86 85 89
50 50 48 48 38 36 37 41 42 43 49 52 53 59 63 67 66 68 59 51 46 46 57 91 99 97 80 40 26 26 28 32 35 37 48 63 80 87 97 95 94 90 93 88
50 42 55 51 29 39 36 41 51 55 54 60 68 68 78 74 76 68 55 57 91 96 100 99 88 74 45 28 29 32 34 34 34 41 56 88 90 98 100 100 100 100 96 92
Wind_Speed
6 6 9 13 5 3 7 8 13 9 5 6 6 7 5 6 9 11 13 14 14 13 11 13 15 15 18 19 17 12 8 6 5 6 6 5 2 5 8 5 6 9 11 12
6 5 4 5 5 6 6 10 9 6 4 3 8 7 6 4 5 8 12 13 14 13 13 13 14 16 18 17 15 13 10 8 9 7 5 4 4 5 5 8 11 13 15 14
7 7 5 7 8 9 6 6 10 7 7 4 10 7 7 5 7 8 8 10 12 14 16 16 17 18 18 18 16 14 14 13 10 9 5 5 3 4 3 5 6 11 15 16
6 4 6 8 6 2 7 3 9 13 12 8 7 5 8 8 8 10 12 13 15 17 18 19 20 19 18 17 16 17 16 13 13 11 8 6 1 2 7 8 8 11 16 21
4 7 7 6 3 1 3 11 10 8 7 6 10 8 10 9 12 13 15 16 17 18 19 19 19 20 19 21 19 19 19 17 14 10 4 2 1 4 6 8 13 15 17 18
6 3 2 3 5 2 13 11 7 3 3 7 3 7 7 11 16 16 19 18 19 19 19 20 19 19 18 17 21 20 17 15 11 6 4 3 8 10 10 13 15 16 18 19
7 4 5 6 11 8 7 11 5 6 6 8 1 6 12 7 8 20 22 22 22 22 22 22 21 20 18 18 19 16 14 11 8 3 3 8 11 11 10 14 14 19 18 19
10 6 6 3 2 6 9 7 4 5 6 6 3 7 3 1 11 19 24 24 24 23 22 21 21 19 18 19 17 16 13 8 4 1 5 8 8 10 11 16 19 16 17 18
5 4 4 2 2 3 5 7 3 2 0 4 6 6 9 6 10 18 25 24 25 25 24 22 20 19 19 19 18 15 12 6 3 3 8 6 9 15 18 19 19 18 18 18
4 4 2 5 3 7 3 7 3 3 3 5 4 7 7 9 14 18 23 26 26 25 23 21 19 18 19 19 19 15 9 6 4 7 4 6 10 15 19 21 20 20 20 18
5 2 5 3 6 6 4 4 1 0 2 3 3 1 3 1 11 19 26 27 27 26 24 22 20 19 20 19 18 12 9 3 3 3 3 6 11 17 20 18 19 19 20 16
3 2 4 7 3 2 2 3 6 4 4 0 2 4 3 1 4 15 23 25 24 24 23 23 22 22 21 21 18 12 7 5 7 4 4 9 15 18 16 15 17 18 18 16
6 4 4 5 5 4 7 6 3 5 1 5 3 2 3 3 6 13 17 20 22 23 23 23 23 23 22 21 17 9 9 8 5 4 7 12 14 15 12 15 17 17 16 15
4 3 5 7 0 1 6 11 10 8 3 4 8 10 7 7 8 10 16 20 23 25 25 24 24 24 22 20 14 13 10 6 6 7 9 10 14 13 14 16 16 17 16 14
3 5 4 1 1 3 4 8 13 15 12 7 7 11 7 6 8 10 11 17 21 23 25 27 26 24 23 21 17 11 10 8 8 9 9 10 15 14 13 15 17 19 16 13
1 3 3 4 2 2 6 10 11 15 14 15 16 19 13 9 6 10 14 18 22 23 25 26 25 24 23 22 16 14 11 9 9 11 12 14 15 16 15 15 17 17 15 14
3 6 4 3 1 2 5 15 17 11 11 12 12 11 4 6 10 12 15 19 22 23 25 26 26 24 22 22 17 14 12 11 11 12 15 18 18 16 15 16 16 17 15 14
5 4 1 1 2 3 1 1 2 12 15 13 16 9 8 6 5 6 12 17 20 23 25 24 22 21 21 20 16 14 14 13 13 15 18 17 14 15 16 16 16 16 15 15
1 4 3 3 4 6 9 4 4 5 5 4 12 10 5 3 4 12 14 17 19 21 21 21 19 17 18 20 17 17 17 14 15 17 14 14 14 15 17 17 17 17 16 14
4 3 1 3 3 4 3 3 1 2 6 6 2 2 6 6 4 6 7 13 17 18 19 20 18 19 21 20 15 21 15 14 16 15 15 14 13 15 17 18 18 18 17 15
2 1 4 4 4 5 1 2 3 3 3 3 2 4 9 8 12 6 8 11 15 18 19 20 22 22 19 16 20 19 15 15 16 18 16 14 15 17 18 18 18 18 16 14
4 5 3 2 3 4 6 5 3 3 4 4 5 6 11 15 10 10 12 12 12 16 17 18 18 20 18 15 14 11 11 13 17 16 16 16 18 18 18 17 18 15 12 11
3 3 1 6 1 3 10 7 4 6 10 11 11 13 13 14 17 14 11 10 10 13 15 17 20 14 12 11 13 11 12 16 16 16 17 18 17 17 16 14 11 12 11 10
4 5 3 2 3 10 11 12 14 13 14 14 14 16 14 17 16 15 12 10 12 13 14 15 16 12 7 8 16 14 14 14 15 17 18 15 16 19 12 10 10 11 11 11
1 8 4 5 12 10 9 9 7 8 10 13 13 14 14 13 13 10 10 11 13 18 19 13 11 4 6 13 13 14 12 14 17 17 16 15 15 14 13 9 11 12 12 12
8 5 4 5 10 6 10 7 8 12 13 12 13 12 10 10 4 6 10 11 14 14 11 7 5 5 11 13 12 13 15 16 15 16 15 12 12 12 11 10 11 13 14 16
Wind_Direction
185 199 204 186 223 55 130 137 134 121 111 110 120 116 105 125 158 168 168 170 172 173 170 172 178 169 164 169 183 190 211 196 244 151 130 142 175 284 301 280 291 303 303 304
176 138 124 122 133 134 147 157 140 113 130 202 157 113 107 129 147 174 178 178 173 165 162 161 163 163 166 163 166 172 176 175 158 145 143 170 232 249 265 297 301 301 303 308
176 115 145 135 131 137 124 184 167 184 160 188 171 149 157 112 130 143 154 168 171 168 162 158 156 156 157 159 161 160 157 154 154 166 171 190 221 277 305 315 317 303 301 306
77 105 136 124 123 288 168 160 150 154 181 193 211 206 177 165 149 156 152 154 152 151 147 146 150 156 156 158 156 155 153 164 173 169 178 187 185 287 297 310 314 309 309 308
100 134 139 126 70 163 85 142 138 163 204 210 194 258 119 176 184 173 164 155 153 152 155 154 151 152 153 156 157 162 169 179 184 191 202 235 350 21 353 338 325 320 316 312
101 91 23 93 59 167 146 138 129 163 214 241 252 262 185 186 208 179 174 173 167 162 157 153 154 156 156 159 170 172 175 181 191 209 218 315 335 334 338 331 329 321 316 312
148 99 110 156 117 138 220 181 186 227 211 248 80 254 263 206 200 184 179 174 171 166 164 165 169 169 169 169 174 172 175 182 168 173 354 342 337 334 343 337 336 333 327 323
190 176 180 144 262 206 197 236 228 240 224 260 176 244 257 227 186 188 184 175 172 173 175 176 176 180 177 177 172 173 167 160 151 85 358 350 349 352 355 346 343 336 329 326
177 122 126 59 161 234 158 219 43 149 52 268 256 241 242 181 189 190 183 178 181 183 183 182 186 184 178 171 172 164 153 155 129 51 334 336 353 358 355 351 341 334 332 329
162 147 175 139 165 65 286 127 183 212 240 246 205 273 263 190 190 189 186 189 189 189 188 189 184 177 172 166 170 165 157 147 323 316 301 348 360 355 345 337 337 336 332 331
166 216 149 196 213 198 154 189 78 14 290 280 294 267 45 256 190 193 195 195 193 193 192 190 183 176 170 171 171 167 171 228 301 237 312 340 345 338 332 337 337 334 332 325
140 140 173 195 115 325 274 202 199 239 182 150 325 288 135 175 226 203 203 201 200 199 194 190 184 177 175 177 176 178 180 189 232 259 308 330 325 324 326 333 334 331 327 319
173 190 159 166 174 190 226 191 181 116 125 207 193 269 168 207 218 215 216 202 203 197 190 187 185 181 179 180 179 189 185 217 226 279 307 308 314 317 320 328 328 325 321 314
173 183 241 233 46 241 195 196 197 208 203 214 238 268 207 220 224 205 210 206 203 196 191 190 188 185 185 186 188 188 218 208 253 283 296 298 309 308 314 321 323 322 317 311
221 229 204 174 111 213 252 224 201 213 230 229 274 253 274 253 237 228 207 201 200 196 194 195 191 190 192 191 191 201 198 235 256 284 294 287 305 304 302 311 318 321 315 307
155 191 176 207 204 248 255 240 229 230 245 256 266 271 274 256 249 207 204 200 203 202 201 199 197 198 198 197 197 195 220 236 266 288 296 300 297 296 298 306 314 317 309 302
158 148 164 233 358 263 283 241 224 224 226 242 252 268 169 214 230 229 216 211 210 209 206 204 204 204 202 199 207 209 218 245 271 286 300 303 298 293 295 299 307 313 309 303
129 120 77 113 201 227 12 112 316 242 257 241 260 256 273 282 259 258 224 217 217 215 213 210 209 209 210 201 211 206 219 252 271 289 296 298 290 288 295 295 298 307 305 302
63 146 125 179 214 315 274 193 202 205 284 292 254 273 256 250 271 255 223 221 227 223 218 214 213 209 201 203 212 222 236 253 273 286 291 293 291 291 294 293 291 297 297 297
67 62 259 150 220 246 56 74 148 220 270 34 275 268 206 196 249 289 204 233 232 219 214 210 205 203 199 206 218 234 232 251 272 285 293 294 294 294 294 291 286 289 287 282
125 46 211 182 241 280 299 138 166 239 20 14 254 219 196 213 260 290 260 231 231 219 213 207 214 203 198 218 224 220 238 262 278 293 300 296 297 298 293 288 283 282 274 269
188 169 182 137 208 269 159 143 226 5 328 294 289 268 250 257 275 277 267 254 233 208 203 202 192 190 211 215 215 222 253 273 290 297 301 299 300 302 298 292 287 268 262 263
232 230 246 219 247 122 190 264 282 294 288 293 291 300 282 271 268 263 258 236 212 193 181 184 189 201 184 214 230 258 267 288 293 300 301 302 302 305 303 296 276 260 261 259
213 185 234 243 185 242 250 263 273 278 278 293 290 286 284 276 278 260 240 210 181 172 160 162 169 173 188 240 269 277 287 295 301 305 302 300 306 306 310 290 271 258 256 263
44 167 208 249 278 279 272 263 274 289 293 296 296 293 292 289 284 251 212 177 162 164 154 154 156 170 235 260 278 288 295 303 306 303 301 306 311 317 309 287 261 259 261 252
190 200 201 259 308 292 298 318 322 306 311 312 309 304 296 290 240 175 163 149 143 141 143 142 164 246 263 273 283 291 299 303 303 301 303 298 311 308 301 292 279 278 261 251